SCP
0 0 0 0 0 0 0 0 0 0 0 0 0 0 0 0 0 0 0 0 0 0 0 0 0 0 0 0 0 0 0 0 0 0 0 0 0 0 0 0 0 0 0
0 0 0 0 0 0 0 0 0 0 0 0 0 0 0 0 0 0 0 0 0 0 0 0 0 0 0 0 0 0 0 0 0 0 0 0 0 0 0 0 0 0 0
0 0 0 0 0 0 0 0 0 0 0 0 0 0 0 0 0 0 0 0 0 0 0 0 0 0 0 0 0 0 0 0 0 0 0 0 0 0 0 0 0 0 0
0 0 0 0 0 0 0 0 0 0 0 0 0 0 0 0 0 0 0 0 0 0 0 0 0 0 0 0 0 0 0 0 0 0 0 0 0 0 0 0 0 0 0
0 0 0 0 0 0 0 0 0 0 0 0 0 0 0 0 0 0 0 0 0 0 0 0 0 0 0 0 0 0 0 0 0 0 0 0 0 0 0 0 0 0 0
0 0 0 0 0 0 0 0 0 0 0 0 0 0 0 0 0 0 0 0 0 0 0 0 0 0 0 0 0 0 0 0 0 0 0 0 0 0 0 0 0 0 0
0 0 0 0 0 0 0 0 0 0 0 0 0 0 0 0 0 0 0 0 0 0 0 0 0 0 0 0 0 0 0 0 0 0 0 0 0 0 0 0 0 0 0
0 0 0 0 0 0 0 0 0 0 0 0 0 0 0 0 0 0 0 0 0 0 0 0 0 0 0 0 0 0 0 0 0 0 0 0 0 0 0 0 0 0 0
0 0 0 0 0 0 0 0 0 0 0 0 0 0 0 0 0 0 0 0 0 0 0 0 0 0 0 0 0 0 0 0 0 0 0 0 0 0 0 0 0 0 0
0 0 0 0 0 0 0 0 0 0 0 0 0 0 0 0 0 0 0 0 0 0 0 0 0 0 0 0 0 0 0 0 0 0 0 0 0 0 0 0 0 0 0
0 0 0 0 0 0 0 0 0 0 0 0 0 0 0 0 0 0 0 0 0 0 0 0 0 0 0 0 0 0 0 0 0 0 0 0 0 0 0 0 0 0 0
0 0 0 0 0 0 0 0 0 0 0 0 0 0 0 0 0 0 0 0 0 0 0 0 0 0 0 0 0 0 0 0 0 0 0 0 0 0 0 0 0 0 0
0 0 0 0 0 0 0 0 0 0 0 0 0 0 0 0 0 0 0 0 0 0 0 0 0 0 0 0 0 0 0 0 0 0 0 0 0 0 0 0 0 0 0
0 0 0 0 0 0 0 0 0 0 0 0 0 0 0 0 0 0 0 0 0 0 0 0 0 0 0 0 0 0 0 0 0 0 0 0 0 0 0 0 0 0 0
0 0 0 0 0 0 0 0 0 0 0 0 0 0 0 0 0 0 0 0 0 0 0 0 0 0 0 0 0 0 0 0 0 0 0 0 0 0 0 0 0 0 0
0 0 0 0 0 0 0 0 0 0 0 0 0 0 0 0 0 0 0 0 0 0 0 0 0 0 0 0 0 0 0 0 0 0 0 0 0 0 0 0 0 0 0
0 0 0 0 0 0 0 0 0 0 0 0 0 0 0 0 0 0 0 0 0 0 0 0 0 0 0 0 0 0 0 0 0 0 0 0 0 0 0 0 0 0 0
0 0 0 0 0 0 0 0 0 0 0 0 0 0 0 0 0 0 0 0 0 0 0 0 0 0 0 0 0 0 0 0 0 0 0 0 0 0 0 0 0 0 0
0 0 0 0 0 0 0 0 0 0 0 0 0 0 0 0 0 0 0 0 0 0 0 0 0 0 0 0 0 0 0 0 0 0 0 0 0 0 0 0 0 0 0
0 0 0 0 0 0 0 0 0 0 0 0 0 0 0 0 0 0 0 0 0 0 0 0 0 0 0 0 0 0 0 0 0 0 0 0 0 0 0 0 0 0 0
0 0 0 0 0 0 0 0 0 0 0 0 0 0 0 0 0 0 0 0 0 0 0 0 0 0 0 0 0 0 0 0 0 0 0 0 0 0 0 0 0 0 0
0 0 0 0 0 0 0 0 0 0 0 0 0 0 0 0 0 0 0 0 0 0 0 0 0 0 0 0 0 0 0 0 0 0 0 0 0 0 0 0 0 0 0
0 0 0 0 0 0 0 0 0 0 0 0 0 0 0 0 0 0 0 0 0 0 0 0 0 0 0 0 0 0 0 0 0 0 0 0 0 0 0 0 0 0 0
0 0 0 0 0 0 0 0 0 0 0 0 0 0 0 0 0 -0 0 0 -0 -0 0 0 0 0 0 0 0 0 0 0 0 0 0 0 0 0 0 0 0 0 0
0 0 0 0 0 0 0 0 0 0 0 0 0 0 0 0 0 0 0 0 0 0 0 0 0 0 0 0 0 0 0 0 0 0 0 0 0 0 0 0 0 0 0
0 0 0 0 0 0 0 0 0 0 0 0 0 0 0 0 0 0 0 0 0 0 0 0 0 0 0 0 0 0 0 0 0 0 0 0 0 0 0 0 0 0 0
Wind_Speed
16 15 16 15 15 14 13 13 12 11 11 11 11 11 10 10 9 9 8 8 7 6 5 5 5 5 5 5 4 4 5 6 8 8 7 7 9 11 10 11 11 12 10
15 16 16 15 14 14 13 12 11 11 11 11 10 10 10 10 9 9 8 7 7 6 6 5 5 4 5 5 5 6 5 6 8 10 9 9 10 11 11 11 11 10 11
15 15 15 14 14 14 12 11 11 11 10 10 10 10 9 8 8 7 7 6 6 6 6 6 6 6 6 6 7 7 6 6 7 9 10 9 9 9 11 11 12 9 11
14 14 14 13 12 12 11 11 11 10 10 9 9 8 8 7 7 7 6 6 6 6 6 6 6 7 7 8 7 7 7 8 8 9 9 9 9 10 9 9 10 9 10
13 13 13 12 11 11 11 10 9 9 9 8 7 7 7 6 8 8 6 6 6 6 6 6 6 5 6 7 8 9 9 8 9 9 9 9 9 9 9 9 10 10 11
12 12 11 11 11 10 10 9 8 8 7 7 6 6 6 7 7 7 8 6 6 6 7 7 6 4 4 7 8 9 11 11 11 11 10 11 12 11 10 9 9 10 10
11 10 10 10 10 9 9 8 8 7 6 6 5 5 6 7 5 5 7 8 7 7 7 7 7 6 7 8 7 10 12 13 14 11 12 13 12 11 11 11 10 11 11
9 9 9 9 9 8 8 7 6 5 5 5 5 5 5 7 5 5 9 9 7 7 7 7 8 8 7 9 12 12 11 9 8 9 9 11 11 10 10 10 11 11 11
9 9 8 8 8 7 7 6 5 4 4 4 5 5 5 5 7 7 11 9 6 7 7 7 7 8 7 8 11 12 12 10 6 8 10 13 14 14 11 9 9 8 9
8 8 7 7 7 6 6 4 4 3 3 4 4 5 5 5 6 6 10 8 7 7 7 6 1 4 8 9 10 10 11 10 10 9 8 9 10 10 12 10 8 8 8
7 7 7 6 5 4 3 3 2 3 3 3 4 3 4 5 3 3 7 8 8 9 7 7 5 6 10 11 11 9 9 11 11 10 8 7 6 4 4 5 5 6 7
6 6 5 3 2 2 2 2 2 3 2 2 3 3 3 2 4 3 4 6 8 9 8 7 8 11 14 14 10 8 11 12 8 7 6 5 5 5 5 5 5 6 6
5 4 3 2 1 1 2 2 2 2 3 4 4 4 4 4 2 3 6 8 9 8 7 8 11 13 13 10 7 10 10 7 6 6 6 6 6 6 6 5 5 5 5
3 2 1 1 1 1 2 3 3 4 5 5 5 5 5 4 6 7 7 6 6 6 7 7 9 11 9 7 7 6 5 5 6 7 7 7 6 6 5 5 5 5 5
2 1 0 0 2 1 2 5 5 7 7 7 7 6 6 6 8 10 9 8 9 8 10 7 5 5 6 6 6 6 6 6 6 6 6 7 7 6 6 5 5 5 6
2 1 1 0 1 1 2 4 6 5 4 3 4 6 5 6 8 10 9 10 11 11 9 5 6 6 7 8 8 8 7 8 8 8 8 7 7 7 7 6 6 6 6
1 1 2 1 1 1 1 1 3 5 4 3 1 2 5 7 8 9 10 11 11 10 5 5 6 7 7 8 8 8 8 8 8 8 8 8 8 8 7 7 7 6 6
2 1 2 1 1 1 1 1 2 2 2 3 5 2 2 4 6 8 11 10 3 3 6 6 7 7 8 8 9 9 9 8 8 8 9 9 8 8 7 7 7 8 7
2 1 1 1 0 1 1 1 2 2 2 2 2 4 2 4 6 7 8 5 6 6 7 7 7 7 8 8 8 8 9 8 9 9 8 9 9 8 8 7 7 6 6
1 3 2 1 1 2 1 1 2 2 2 3 3 4 3 3 3 4 5 6 7 7 8 8 7 8 8 8 9 9 9 9 9 9 9 9 8 8 8 8 8 7 6
1 5 4 3 1 2 2 2 2 2 2 2 4 5 6 5 4 6 6 6 7 7 7 8 8 8 8 9 9 10 11 10 9 9 9 9 8 8 8 7 8 8 7
1 2 3 2 3 2 1 2 2 2 2 2 2 3 2 3 4 5 6 6 7 6 7 7 8 7 8 9 9 9 10 10 10 10 10 9 8 8 8 8 8 8 9
1 2 3 3 3 3 2 1 2 2 2 2 2 2 2 4 5 5 6 6 6 6 6 7 7 8 9 8 8 8 9 10 10 10 10 9 8 8 7 8 9 9 9
2 2 3 3 2 2 2 2 2 2 2 2 2 2 3 4 5 6 6 6 6 6 6 6 7 10 12 10 8 9 10 10 11 10 11 9 8 8 7 8 8 10 9
2 3 2 3 2 2 2 2 2 2 2 2 2 3 4 4 5 5 6 6 6 6 8 8 7 9 12 13 13 12 12 12 10 10 11 7 9 9 8 8 7 8 9
3 3 3 3 2 2 2 2 3 2 2 2 2 3 4 4 5 5 5 6 6 6 7 7 10 11 14 12 13 13 12 12 12 12 11 7 8 8 9 7 9 8 9
Wind_Direction
75 78 79 79 80 81 80 81 82 81 79 78 76 75 72 68 64 63 61 55 50 42 28 25 17 359 343 332 326 317 312 310 304 305 308 310 302 296 301 299 295 290 284
81 82 82 82 82 82 81 81 81 80 78 77 76 74 71 67 60 56 54 48 41 31 18 5 355 346 338 320 326 318 315 314 299 303 305 301 301 301 298 299 296 295 297
86 85 83 83 83 83 84 84 83 82 80 78 77 74 70 68 64 57 53 45 34 24 11 358 348 341 330 334 321 315 313 306 300 296 298 303 300 302 305 298 299 301 298
86 85 84 84 85 87 88 86 84 83 81 79 78 78 74 67 60 52 46 38 25 17 8 353 343 340 335 329 312 308 307 303 296 291 294 299 302 307 306 305 308 310 309
89 88 89 90 91 91 89 88 87 86 87 87 85 81 72 64 46 28 22 25 12 3 357 345 343 338 331 319 317 321 314 307 302 299 300 303 307 313 312 314 312 311 306
94 95 97 97 96 95 95 94 91 88 85 81 72 67 61 61 53 15 347 356 353 350 347 339 325 300 326 281 272 284 293 295 304 305 302 304 308 311 316 313 310 309 307
96 98 100 100 98 98 98 95 91 87 79 68 60 54 56 74 54 7 340 323 333 342 336 331 330 344 315 324 309 279 268 254 255 277 291 297 305 312 314 311 309 306 305
102 101 102 102 99 98 95 90 83 75 64 54 42 36 37 67 48 3 331 305 323 329 328 326 324 325 350 341 318 309 306 301 288 276 288 296 301 308 307 299 296 294 294
104 101 101 102 103 100 92 84 70 56 45 34 35 22 18 58 49 8 335 318 329 331 328 327 325 325 27 340 309 306 311 315 296 258 263 272 277 276 276 287 294 300 311
104 103 104 100 96 90 80 69 58 38 27 14 28 18 11 25 57 9 338 322 338 333 329 325 331 343 339 318 307 307 312 320 321 312 285 265 262 256 238 252 285 303 313
108 108 104 99 94 84 70 51 25 11 18 7 9 11 19 20 64 40 345 330 337 329 329 332 1 3 327 313 299 295 308 309 302 301 301 300 294 285 267 258 277 294 306
114 112 107 98 79 76 48 22 2 345 336 354 359 356 23 41 27 25 317 303 306 312 319 333 344 335 318 306 300 308 302 291 289 302 307 314 319 323 321 313 305 297 286
125 117 108 93 62 24 344 342 334 341 345 358 1 7 16 18 59 219 268 275 273 291 319 320 304 298 298 294 274 284 288 293 312 318 323 328 328 326 316 310 314 317 316
129 123 134 144 111 62 342 350 355 3 2 2 6 11 11 18 17 2 344 330 309 301 321 309 282 274 275 295 304 299 304 323 323 322 323 324 325 326 325 334 346 346 352
137 141 207 84 54 39 50 29 9 43 29 359 4 1 3 4 11 344 326 332 334 335 323 313 335 347 349 353 348 344 340 340 337 337 335 337 340 344 350 357 360 351 360
189 193 265 320 62 20 108 119 72 53 82 50 9 346 6 16 338 325 320 312 305 303 306 337 357 359 355 351 351 352 355 355 352 349 348 349 350 352 355 0 10 8 10
276 313 312 345 47 48 29 55 132 144 173 189 223 335 340 337 326 323 320 312 292 291 319 4 4 359 355 352 353 355 356 357 351 350 354 355 354 354 359 6 14 16 18
256 188 274 298 336 32 41 39 47 70 125 142 167 182 309 313 310 315 315 311 330 352 12 9 3 359 356 354 354 355 353 354 355 352 357 359 357 356 1 8 17 14 14
275 324 350 14 60 80 73 69 69 58 51 53 78 129 215 261 248 268 303 352 10 13 11 8 4 359 355 352 351 352 351 353 358 353 358 357 357 359 4 10 17 18 6
161 61 310 246 140 120 110 91 82 68 56 52 51 35 12 351 15 21 13 13 8 10 6 360 356 354 354 351 351 354 354 357 358 358 358 356 356 358 3 10 11 10 15
139 135 189 223 131 101 96 88 85 66 59 63 68 55 340 338 15 15 15 12 8 2 359 350 345 353 358 354 356 354 353 357 0 359 355 352 354 359 1 8 11 12 13
230 165 165 120 113 99 80 99 91 79 72 62 81 119 256 314 16 15 13 9 4 359 357 348 344 355 359 354 350 347 352 357 358 354 347 345 351 2 8 11 15 19 15
207 152 136 128 118 129 195 112 91 79 73 68 64 49 37 18 13 11 10 7 1 0 358 354 350 359 360 352 346 344 353 353 343 337 335 342 354 4 12 15 18 21 31
147 147 140 137 138 146 126 115 109 91 80 72 54 45 31 20 14 13 7 6 2 4 5 4 3 3 1 0 355 0 9 348 330 325 332 342 360 8 12 16 21 21 22
150 138 140 136 132 126 121 119 108 98 90 75 52 38 28 19 17 17 14 10 7 13 12 13 8 9 6 10 10 6 352 333 326 325 324 350 13 13 11 20 23 26 25
139 137 140 132 127 126 125 124 113 105 94 73 49 34 21 16 20 19 20 17 10 19 16 15 12 20 15 11 10 360 345 338 336 328 319 353 21 19 2 12 19 25 25